GEFSMA_500_meanwind_168.txt.gz
Wind_Speed
25 25 26 26 26 26 26 26 26 25 26 25 24 24 25 25 25 26 25 25 25 26 25 25 25 24 24 24 23 23 22 22 22 21 21 21 22 22 22 22 21 21 21
27 27 27 28 28 28 28 28 27 26 26 26 26 26 26 26 26 26 27 26 25 25 26 25 25 25 25 25 24 24 23 23 22 22 22 22 22 23 23 23 22 23 23
29 29 29 29 29 30 29 29 29 28 27 26 27 27 27 27 27 26 25 26 25 26 26 26 26 25 25 26 26 25 25 24 23 23 23 23 24 24 25 25 24 24 24
30 31 30 30 30 30 30 30 30 29 28 28 28 29 28 28 28 27 26 26 25 25 26 27 27 26 26 26 26 26 26 25 25 24 23 23 24 25 26 26 25 25 25
31 31 31 30 31 31 31 31 31 31 30 30 30 29 29 28 28 29 28 28 27 27 26 27 27 27 26 27 27 26 25 24 25 26 25 25 25 25 27 27 27 26 27
32 31 31 31 31 31 31 31 31 31 31 30 30 30 29 29 29 29 29 28 27 27 27 27 27 27 27 27 27 26 26 25 25 25 26 26 26 26 26 28 28 28 28
32 32 32 31 31 31 31 31 30 31 31 31 31 31 31 31 30 29 28 28 28 27 27 27 27 27 27 27 27 26 26 26 26 26 26 26 26 26 26 27 28 28 28
31 32 31 31 31 30 30 30 30 31 31 31 31 31 31 31 31 30 29 29 28 28 28 28 28 28 27 26 25 26 26 26 26 26 26 26 26 26 27 27 27 28 28
30 30 30 30 30 30 30 30 29 30 30 30 30 30 30 30 30 30 29 29 29 27 27 28 28 27 27 26 26 26 26 26 26 26 26 26 26 26 26 26 26 27 28
29 29 29 30 31 31 30 30 28 28 28 28 28 29 29 29 28 28 28 27 27 26 26 26 26 26 26 26 26 26 26 26 26 26 25 26 26 26 26 26 26 27 28
29 29 29 30 30 30 29 29 28 28 28 28 27 27 27 28 28 27 27 27 27 27 26 26 26 26 25 25 25 25 25 25 25 25 25 25 26 26 26 25 25 26 27
30 30 30 30 29 28 28 28 27 27 27 27 26 25 25 25 26 26 26 27 26 26 25 24 25 25 25 24 24 23 24 25 25 24 24 24 25 24 25 25 24 24 25
29 28 28 28 28 27 27 27 26 26 26 26 26 25 25 25 25 25 25 25 25 24 24 24 24 24 24 23 23 23 23 24 25 25 24 24 23 23 23 24 23 23 23
28 27 27 26 26 26 25 24 24 24 25 25 25 25 25 25 25 25 25 24 24 24 24 24 24 24 24 23 23 23 23 23 24 24 23 23 22 23 23 23 22 23 23
27 25 24 24 24 24 24 24 24 24 24 24 24 24 24 24 24 25 25 24 24 23 23 23 23 23 23 23 23 23 22 22 22 22 22 23 23 24 23 23 23 24 24
25 24 23 23 22 22 22 22 22 22 22 22 23 23 23 24 23 23 23 23 22 22 22 21 21 21 22 22 22 22 21 21 20 20 21 21 22 24 23 23 24 25 25
24 23 22 21 21 21 22 21 21 21 21 21 21 22 22 22 21 22 22 21 21 21 20 20 21 21 21 21 21 21 22 21 21 20 21 21 22 22 24 24 24 24 24
23 22 21 21 21 21 20 20 19 20 20 19 19 19 20 20 20 21 22 22 21 20 20 20 20 20 20 20 20 20 21 21 21 21 21 21 21 21 22 23 23 24 24
21 21 20 21 20 20 20 19 19 18 19 18 19 18 18 18 19 20 20 21 21 20 20 21 21 20 20 19 19 19 20 20 21 21 21 21 21 20 21 22 22 23 23
20 20 20 20 19 19 19 19 18 18 17 17 17 17 17 17 17 18 19 19 20 21 21 20 20 20 20 19 19 19 19 20 20 20 20 20 20 20 20 21 21 22 22
19 19 19 19 18 18 18 18 18 17 17 16 15 15 15 15 15 15 17 17 18 19 20 20 20 19 19 18 18 19 19 19 20 20 19 19 19 19 20 20 21 22 21
19 18 18 17 17 17 17 17 17 17 16 15 15 14 14 14 14 14 15 15 16 17 18 18 18 19 19 18 18 19 19 19 19 19 19 19 19 19 20 20 21 21 21
19 18 18 17 17 17 17 16 15 16 15 14 14 13 13 13 13 13 13 14 14 15 15 16 17 17 18 18 18 19 19 19 18 18 18 18 18 19 19 19 20 20 21
19 18 17 16 16 16 16 16 16 15 14 14 13 12 12 11 11 11 12 12 13 13 14 15 15 15 16 17 17 17 18 18 18 18 18 18 18 18 18 19 19 19 20
17 17 16 16 15 15 16 16 16 14 13 13 12 11 10 9 9 8 9 9 10 11 12 13 14 15 15 16 16 17 17 18 18 18 18 18 18 18 18 19 19 19 20
16 16 16 15 15 15 15 15 15 14 13 11 11 10 9 9 8 7 7 8 9 10 11 12 13 14 14 15 15 16 17 17 17 18 18 18 18 19 19 20 19 20 21

GEFSMA_500_meanwind_174.txt.gz
Wind_Speed
23 24 24 25 26 26 27 27 26 26 26 25 26 26 26 26 27 27 27 27 26 26 25 25 24 24 24 23 23 23 23 23 24 24 24 24 24 23 23 24 24 23 23
25 25 25 26 27 28 29 28 28 28 28 27 28 27 26 27 27 27 28 28 28 27 26 25 24 25 25 24 24 24 24 24 24 24 24 24 24 24 24 25 24 25 25
26 26 27 27 28 29 29 29 29 29 28 28 28 28 27 28 28 28 28 28 27 27 26 25 25 25 25 25 25 25 25 25 25 25 25 25 25 25 25 25 25 26 26
27 27 28 28 29 30 30 30 30 29 29 28 28 28 28 28 28 28 27 27 27 27 27 27 26 25 25 25 26 25 26 26 26 27 26 27 27 27 27 27 26 26 27
28 28 28 29 30 30 30 30 30 30 29 29 29 29 28 28 28 28 28 27 27 27 27 27 27 26 25 26 26 26 27 26 27 28 28 28 29 29 28 28 28 28 28
29 28 28 28 28 28 28 29 30 30 30 29 29 29 29 29 29 29 29 29 27 26 26 27 27 27 26 26 26 26 26 26 26 27 28 28 29 29 29 29 28 29 29
29 28 28 28 29 29 28 28 28 29 30 30 29 30 30 30 29 29 29 29 28 27 27 27 27 27 27 26 26 26 26 26 26 26 27 28 29 29 29 29 29 28 29
28 28 28 30 30 29 28 29 29 29 29 30 29 29 29 28 29 28 28 28 28 29 28 27 27 26 26 26 26 26 27 26 26 27 27 28 28 28 29 29 30 29 29
28 29 29 30 30 29 29 29 29 29 29 29 29 29 29 28 28 28 27 27 27 28 28 26 26 26 26 27 27 27 27 26 26 27 28 28 28 27 29 29 29 30 30
28 29 30 30 28 28 28 28 28 28 27 27 27 27 27 27 26 27 27 27 27 28 27 26 26 26 26 26 27 27 27 27 27 27 27 27 27 27 28 29 29 29 29
28 28 29 28 28 27 27 27 26 26 26 25 26 26 26 25 25 26 27 27 27 28 28 27 26 26 26 25 26 27 27 27 26 25 26 26 27 26 27 28 28 29 29
27 27 26 26 26 25 25 25 25 24 24 24 24 24 25 25 25 25 25 26 26 27 27 27 26 26 27 26 25 24 25 25 25 24 25 25 26 26 27 27 28 29 29
26 25 24 24 24 24 23 23 22 22 23 23 23 23 23 23 24 23 24 25 24 25 27 27 27 27 27 26 25 24 24 25 25 25 25 24 25 25 25 26 26 27 27
24 23 23 24 23 23 22 22 22 22 22 22 22 22 22 22 22 22 23 25 25 24 25 26 27 27 27 26 25 25 24 24 24 25 24 23 23 24 24 24 25 25 26
22 22 23 23 23 23 22 22 21 21 21 21 21 21 21 21 21 21 22 23 24 24 25 25 25 26 26 26 25 25 25 24 24 24 24 23 23 23 23 23 24 25 25
23 23 23 23 23 22 22 21 21 20 20 21 21 20 20 20 20 20 21 21 22 22 24 25 25 25 26 25 25 25 24 24 23 24 24 24 24 24 24 23 24 24 25
22 22 22 22 22 21 21 21 20 20 20 20 19 19 19 18 18 19 20 20 20 21 22 23 24 24 24 25 25 24 24 24 24 24 24 24 25 25 24 24 24 24 25
22 22 22 21 21 21 20 20 20 20 19 18 18 19 18 18 16 18 19 18 18 19 21 22 23 23 24 24 23 24 24 24 24 24 24 24 25 25 25 25 25 25 25
21 22 21 21 21 21 20 20 20 19 19 18 18 17 17 16 16 16 16 16 17 18 19 20 21 22 24 24 22 23 24 25 24 24 25 24 25 25 25 25 25 25 25
22 22 21 21 21 20 19 20 20 19 18 17 16 16 15 15 16 16 15 15 15 15 16 18 19 20 22 24 23 23 24 25 25 25 25 24 25 25 25 24 25 25 25
21 21 21 21 20 20 20 20 19 19 17 16 15 15 15 14 14 13 14 14 14 14 15 16 17 19 20 22 22 22 23 24 25 25 25 24 24 24 24 24 24 25 25
20 21 20 20 20 19 19 19 18 17 15 14 14 14 14 13 13 12 13 14 14 14 15 15 16 18 19 20 21 20 21 22 23 24 24 24 24 25 25 24 25 25 25
20 19 20 19 19 19 18 18 17 17 16 14 14 14 13 13 12 12 13 13 13 13 13 14 14 15 17 18 19 19 20 20 21 22 22 23 24 24 24 24 25 25 25
19 19 18 18 18 18 18 17 16 15 15 14 14 13 13 12 12 12 12 12 11 12 13 13 13 13 14 16 17 18 19 20 20 21 21 22 22 23 23 23 24 24 24
19 18 18 17 17 17 17 16 15 14 14 13 13 12 12 11 11 11 11 10 11 11 11 11 11 12 13 15 16 17 19 20 20 21 22 22 23 23 24 25 25 25 25
17 17 17 16 16 16 15 14 14 13 13 12 12 11 11 11 10 10 10 9 9 9 9 10 11 13 14 15 16 18 19 19 20 21 22 22 23 23 24 25 25 26 26

GEFSMA_500_meanwind_180.txt.gz
Wind_Speed
25 25 26 27 27 28 28 29 29 30 30 30 31 31 30 30 29 29 29 29 29 29 28 27 27 26 26 25 25 24 24 25 25 25 25 25 24 24 23 23 23 23 23
25 26 27 27 28 28 29 29 29 30 30 30 31 32 32 31 31 31 31 31 31 30 29 29 28 28 27 26 26 26 26 26 26 26 26 26 26 26 25 24 24 24 25
25 26 27 27 28 28 28 29 30 30 29 30 30 31 32 32 33 32 31 31 31 31 30 30 29 28 28 28 27 26 27 28 27 27 27 27 27 26 26 26 25 26 25
25 26 27 28 28 28 28 29 29 30 30 29 30 30 31 31 32 33 32 32 31 31 31 30 30 29 29 29 28 28 28 28 28 28 28 28 27 28 27 27 26 26 26
25 27 27 27 28 28 28 29 29 30 30 30 30 31 31 32 32 32 31 32 32 31 31 30 30 30 29 28 28 28 27 27 27 28 28 27 27 28 28 28 27 27 28
26 27 27 27 28 29 29 29 30 31 31 30 31 32 32 32 33 33 32 32 32 32 32 31 31 30 29 29 29 29 28 29 28 29 29 28 28 28 29 28 29 29 29
26 27 27 27 28 29 28 29 30 30 30 30 30 31 31 31 31 31 31 32 32 32 33 32 31 31 30 29 29 29 29 29 29 29 29 29 28 28 29 29 29 30 30
26 27 28 29 29 28 29 28 29 29 29 30 30 30 30 29 30 30 31 31 31 33 33 32 32 31 30 30 30 31 30 30 30 30 30 30 30 29 30 30 30 30 30
26 27 28 29 29 29 28 28 28 28 29 30 30 29 28 28 28 29 30 31 31 32 32 33 32 31 31 31 32 32 31 31 30 31 30 30 31 31 31 31 30 30 31
26 27 28 29 30 29 27 27 27 28 29 28 28 27 27 26 26 26 28 29 30 31 31 31 31 31 32 32 32 31 31 31 31 30 29 30 30 31 30 30 30 31 31
25 26 28 28 27 26 26 26 27 28 28 27 26 26 25 25 25 25 25 26 28 30 31 30 30 31 31 32 31 31 30 31 31 31 30 30 30 30 30 30 30 30 30
25 26 27 27 27 26 25 25 26 26 26 26 25 24 24 24 24 24 25 26 26 28 29 29 29 30 31 31 31 31 31 30 30 31 30 30 29 29 29 30 30 30 30
24 25 26 26 26 25 24 25 25 25 25 25 25 25 24 23 23 24 24 25 26 26 27 28 29 30 31 31 31 31 31 31 31 30 30 29 29 29 29 29 29 29 30
24 25 25 25 26 25 25 24 24 24 24 24 24 24 23 23 23 23 23 24 25 24 24 26 27 29 30 30 30 31 31 32 31 31 31 30 29 29 30 29 29 29 29
25 25 25 25 25 25 25 25 24 24 24 23 23 22 23 23 23 22 22 23 23 23 22 24 26 27 28 29 30 31 31 32 32 32 31 30 29 30 30 29 29 29 30
24 24 24 24 25 25 26 25 25 24 24 23 22 22 22 23 23 23 22 22 22 23 22 23 24 25 27 28 30 31 31 31 32 32 31 31 30 30 31 31 30 30 30
23 24 24 25 25 26 25 25 25 24 23 23 22 22 22 23 22 22 22 21 21 21 20 21 22 24 25 27 29 30 30 30 30 31 31 31 31 31 31 31 31 31 30
23 23 24 25 25 25 25 25 24 23 23 23 22 22 22 22 22 21 21 20 20 19 19 19 19 21 23 24 25 27 28 28 29 29 30 30 31 31 31 31 31 31 31
22 23 24 25 25 25 25 24 23 23 23 23 22 21 20 19 19 19 19 18 18 18 17 17 18 19 21 22 23 25 26 27 28 28 29 30 30 30 31 31 32 32 31
22 22 24 24 24 24 24 23 22 22 22 22 21 20 19 19 18 18 17 17 17 17 17 17 18 19 20 21 21 22 23 25 26 27 29 30 30 30 30 31 31 31 32
21 22 22 23 23 23 23 23 22 21 21 21 20 20 19 18 18 17 16 16 16 16 16 16 17 18 19 20 21 21 22 23 25 26 27 28 30 30 31 31 31 31 31
21 21 21 22 22 22 22 21 21 20 20 20 20 19 18 18 17 16 15 15 15 15 15 16 16 16 18 19 20 21 22 22 23 24 25 26 27 28 29 30 30 30 30
21 21 22 22 22 21 21 20 20 19 19 19 19 19 18 17 16 16 15 15 15 14 14 15 15 16 16 17 18 18 19 20 21 23 24 25 26 27 28 28 29 30 30
19 21 22 21 21 20 20 20 19 19 19 18 18 17 16 15 15 15 15 15 15 14 14 14 15 15 16 16 17 17 18 19 20 21 22 24 25 26 27 28 29 29 30
20 20 21 21 20 20 20 19 20 18 17 17 17 16 15 15 15 15 14 14 14 14 14 15 14 14 15 16 16 17 18 19 19 20 21 22 24 26 27 27 29 30 30
20 20 20 20 20 20 19 19 18 18 17 17 16 16 15 15 15 15 15 14 14 14 14 14 14 15 15 16 17 18 19 19 20 21 22 23 24 25 25 26 28 29 31

GEFSMA_500_meanwind_186.txt.gz
Wind_Speed
24 24 24 24 25 26 26 26 26 26 26 27 27 27 27 27 28 29 29 29 29 28 28 28 28 28 27 27 27 26 26 26 25 25 25 26 26 27 27 27 27 26 26
24 25 25 25 25 26 26 26 26 26 26 26 27 27 27 27 28 29 29 30 30 30 30 30 29 29 29 29 29 28 28 28 27 26 27 27 27 27 27 28 27 27 28
25 25 26 26 26 27 27 26 26 26 26 26 26 27 28 28 28 29 30 30 31 32 31 31 31 30 30 30 30 30 29 29 29 28 27 28 27 27 27 28 29 29 28
26 26 26 26 26 27 27 26 26 27 27 27 28 28 29 29 29 30 30 31 31 32 33 32 32 31 31 31 30 30 30 30 29 28 28 28 28 27 27 28 29 30 30
26 26 26 26 26 27 27 26 27 27 28 28 29 29 29 29 29 29 30 31 32 32 33 33 33 32 32 32 31 30 30 30 30 30 29 29 29 29 28 29 30 30 30
26 26 26 26 26 27 26 27 28 28 28 28 28 29 29 29 29 29 30 30 31 32 33 34 34 33 33 33 32 31 31 31 31 30 30 30 31 30 30 30 30 31 31
26 26 27 27 26 26 27 27 28 29 29 28 28 28 29 29 29 30 30 31 31 31 32 33 34 34 34 34 33 32 32 32 32 31 31 30 31 31 31 31 31 31 31
26 26 26 26 26 26 27 28 28 29 29 28 28 29 30 30 30 31 31 31 32 32 32 33 34 34 35 34 34 34 34 33 33 32 32 32 31 32 32 33 33 32 31
25 25 25 26 26 26 27 28 28 29 29 28 29 30 30 30 30 31 31 30 31 31 31 32 33 34 34 34 34 34 35 35 35 34 33 32 32 32 32 32 33 33 32
26 25 25 26 26 26 27 28 28 28 27 28 28 28 28 29 30 30 29 29 28 28 29 30 32 33 34 34 34 34 35 36 36 36 34 33 32 32 33 33 32 33 33
25 25 25 25 25 26 27 27 27 26 26 26 26 26 27 27 27 27 26 27 27 27 27 28 30 32 32 33 34 34 34 35 36 37 36 35 33 32 32 33 33 33 33
25 25 26 25 25 26 26 26 26 25 25 25 25 25 26 26 26 26 25 25 26 26 26 27 28 30 32 32 33 34 35 35 35 36 36 35 34 34 34 34 33 33 34
25 24 25 25 25 25 26 26 26 25 24 25 25 25 26 26 26 26 26 26 26 26 26 26 27 29 31 32 33 34 35 35 35 36 36 35 35 35 35 35 35 34 34
25 24 24 24 24 25 24 25 24 24 24 24 24 25 25 26 26 26 26 27 26 26 26 26 27 28 29 30 32 33 34 34 34 35 35 34 35 35 36 36 35 35 34
25 24 24 24 24 24 24 24 24 24 24 24 24 25 25 25 25 25 25 25 25 25 24 25 26 27 27 29 32 33 33 33 33 34 34 34 34 35 36 37 37 36 35
24 24 24 23 23 24 24 24 24 25 24 24 25 25 25 25 25 25 24 24 23 23 23 23 23 25 26 27 28 30 32 32 32 32 33 33 35 35 35 36 36 36 35
24 24 24 23 23 24 24 24 24 25 25 25 25 25 25 25 24 23 23 23 22 22 22 21 22 23 23 23 25 27 29 29 29 30 31 33 34 34 35 36 35 36 36
24 24 24 23 23 24 23 23 24 25 24 24 24 24 24 23 23 22 21 21 21 21 21 20 20 21 21 21 22 23 25 27 27 28 29 31 32 33 34 35 35 34 35
22 22 22 22 22 23 22 23 24 24 24 24 23 23 23 23 22 21 20 20 20 20 19 18 18 19 20 21 21 22 23 24 26 26 27 30 31 32 33 33 34 33 34
21 22 22 21 22 22 22 23 24 24 23 23 23 23 23 22 22 20 20 19 19 19 18 17 17 17 18 20 20 21 22 24 25 25 26 28 30 31 32 32 33 33 34
21 22 21 22 22 22 22 23 23 23 23 23 22 22 22 21 20 19 18 18 18 17 17 17 17 17 17 18 18 19 21 22 22 24 26 28 28 29 31 32 32 33 33
20 21 21 22 22 22 21 22 23 23 23 22 21 21 21 20 19 18 17 17 17 17 17 17 17 17 17 17 18 18 20 21 21 23 25 26 26 27 29 30 30 31 31
19 20 21 21 22 22 21 22 22 22 22 22 21 21 20 20 19 18 18 18 19 19 18 18 18 17 17 17 18 18 19 20 21 21 23 24 24 25 26 28 29 30 31
18 19 20 20 20 21 22 21 22 22 21 21 20 20 20 19 18 19 19 19 19 19 19 18 18 18 17 17 18 18 19 19 20 21 22 22 23 23 25 26 27 29 30
18 18 18 19 20 21 22 22 22 22 22 21 20 20 19 18 18 18 18 18 17 17 18 17 17 17 17 17 18 18 19 19 19 20 21 22 22 23 24 24 25 27 28
16 17 17 19 20 20 21 22 22 21 21 21 20 19 19 18 17 17 17 17 17 17 18 18 18 17 16 16 17 17 18 18 18 19 20 21 22 23 24 24 25 26 27

GEFSMA_500_meanwind_192.txt.gz
Wind_Speed
24 24 24 25 25 25 25 25 25 25 24 23 24 24 24 25 25 25 25 25 25 25 26 26 27 28 28 28 28 28 27 27 27 27 26 26 25 25 26 25 26 27 27
25 25 25 25 26 26 26 25 25 25 24 25 25 25 26 26 25 26 26 26 26 27 27 27 27 28 29 29 29 29 28 28 28 27 27 27 27 26 26 27 27 27 28
26 26 26 25 26 26 26 26 26 26 26 26 27 27 27 26 26 27 27 27 27 27 27 28 28 28 30 30 30 30 30 30 30 29 29 28 28 27 27 27 27 27 29
26 27 26 26 27 27 26 27 27 28 27 28 27 27 27 27 27 27 27 27 27 27 27 27 28 29 30 30 31 31 32 31 31 30 30 30 29 28 28 28 28 28 29
28 29 27 27 27 27 27 27 28 28 28 28 28 28 28 28 28 28 28 28 28 27 27 27 28 29 30 30 31 31 32 32 32 32 31 31 30 30 29 30 29 28 28
29 29 28 27 28 27 27 28 29 30 30 30 30 30 30 29 29 29 28 28 28 28 28 29 29 30 30 31 31 32 33 34 33 34 33 32 32 31 30 30 30 29 28
29 29 28 28 28 28 27 28 30 30 31 31 30 30 30 30 29 29 29 28 28 28 29 29 30 31 31 32 32 33 33 35 35 34 34 34 33 33 32 32 31 30 29
30 29 29 28 28 28 28 29 30 31 31 30 30 29 29 29 29 29 28 28 27 28 29 29 30 31 31 32 32 32 33 35 35 36 35 35 33 33 33 33 33 32 31
30 30 29 29 28 29 30 30 31 31 30 30 30 30 29 28 27 26 27 27 28 28 28 29 30 30 31 32 32 33 33 34 35 36 36 36 35 33 33 32 33 33 33
30 30 30 29 30 30 30 31 31 30 29 28 29 28 28 28 27 26 27 28 29 28 29 29 29 29 30 31 33 34 34 34 35 36 36 36 36 35 34 34 33 34 34
29 30 30 30 31 30 29 30 30 29 29 28 28 27 28 27 27 27 27 28 28 28 28 28 28 28 29 29 31 33 34 35 35 36 36 36 36 36 35 34 35 35 35
29 30 31 30 30 29 30 30 29 29 28 28 28 28 27 26 27 27 27 28 28 28 28 27 28 29 28 28 30 32 34 34 35 35 36 36 36 36 36 36 36 35 35
28 29 30 30 30 30 30 28 28 28 28 28 28 28 28 27 27 27 27 27 27 27 27 28 29 29 28 28 29 31 33 34 34 34 35 35 36 35 35 36 36 37 36
28 30 29 29 30 29 29 28 27 27 27 27 27 27 27 27 27 27 27 27 27 27 27 27 27 28 28 28 28 29 30 32 33 34 33 33 35 35 35 35 36 37 37
28 28 27 27 28 28 28 28 27 28 28 27 27 27 26 27 27 27 27 27 27 27 26 26 27 27 28 28 28 28 28 29 31 32 33 33 34 34 35 35 35 35 37
26 26 25 25 26 27 28 27 27 27 27 27 27 27 26 26 26 26 27 27 27 26 26 26 27 27 26 26 26 26 27 28 30 30 32 33 33 33 34 35 35 35 35
25 25 25 26 26 26 26 27 27 27 27 27 26 26 26 26 26 26 26 26 26 26 26 26 26 26 26 25 24 24 25 26 28 29 30 32 33 33 33 34 34 35 34
25 25 25 25 25 26 26 26 26 26 27 26 26 26 26 26 26 26 25 26 26 26 26 25 24 24 23 23 23 23 24 25 26 27 28 30 32 32 33 33 33 33 34
25 25 24 25 24 26 26 26 26 25 25 25 25 26 26 26 26 26 26 26 26 25 25 24 24 23 22 22 21 21 22 23 24 25 26 29 30 31 31 31 31 32 32
24 23 23 23 24 25 25 25 24 24 25 25 25 25 26 26 26 26 26 26 26 25 24 24 23 22 21 20 20 19 20 21 23 24 25 27 28 29 30 30 30 31 32
22 22 22 22 23 23 23 23 24 25 25 25 25 25 25 25 26 26 25 25 25 25 23 22 21 21 20 19 19 20 20 21 22 22 23 24 25 27 28 29 30 30 31
21 21 21 21 21 22 22 24 25 25 25 25 24 24 24 25 25 24 24 24 23 23 22 22 21 21 20 19 20 20 21 21 21 21 22 22 23 24 25 26 28 29 30
20 20 20 20 20 21 23 24 24 24 24 24 23 23 23 23 23 22 23 23 23 23 23 23 22 21 20 20 20 21 21 22 21 21 21 21 22 23 24 25 26 27 28
19 19 19 19 20 20 21 22 23 23 22 22 22 22 22 22 22 23 23 23 23 24 24 24 23 22 22 21 21 21 21 21 21 21 21 21 21 22 23 24 24 25 26
18 18 19 19 20 21 21 22 22 22 22 22 21 22 22 22 23 23 23 24 24 24 24 24 24 23 22 22 22 22 22 22 20 21 22 22 22 22 23 23 24 24 25
17 18 18 19 20 20 21 21 22 22 22 22 22 23 23 24 24 24 24 25 24 23 22 22 21 21 21 21 22 22 22 22 21 21 21 21 22 22 23 23 24 24 24

GEFSMA_500_meanwind_198.txt.gz
Wind_Speed
20 20 21 21 22 21 21 20 20 20 21 21 22 23 23 23 23 23 23 24 23 23 23 24 25 26 26 26 26 26 27 27 27 27 27 26 26 26 26 26 25 25 25
21 22 22 22 22 22 22 22 21 21 21 22 22 22 22 22 23 24 24 23 24 23 23 23 25 26 27 27 28 28 28 28 29 29 28 28 27 28 27 27 27 26 26
23 23 23 24 23 23 22 22 22 23 23 22 22 22 23 23 23 23 24 24 24 24 24 24 25 26 27 28 29 29 29 29 30 30 29 29 29 29 29 28 28 28 27
24 25 24 24 24 24 23 24 23 24 24 23 23 24 24 24 24 24 24 24 24 25 25 25 26 27 28 28 29 30 30 30 30 30 31 30 30 30 30 30 30 29 29
25 24 24 24 24 24 25 25 24 25 24 24 24 24 24 24 24 24 24 24 24 25 26 27 27 28 28 29 30 30 31 32 32 32 31 31 31 30 30 31 31 31 30
24 24 25 25 25 25 25 25 25 25 25 25 24 25 25 25 25 25 25 25 26 26 27 27 28 29 29 29 30 31 31 32 33 34 33 33 33 32 32 31 32 32 32
25 25 26 26 25 25 26 26 25 25 26 25 25 25 24 25 25 25 25 26 26 26 27 28 28 28 29 29 29 30 31 32 33 34 34 35 34 34 34 33 33 33 33
27 27 27 27 26 26 26 27 26 26 26 25 26 25 25 26 26 26 27 27 27 27 27 27 28 28 28 28 28 29 31 32 32 33 34 35 35 36 35 35 34 34 34
28 28 27 27 27 27 26 26 25 25 26 26 25 26 26 25 25 26 26 26 26 26 26 27 27 27 27 27 28 29 30 31 32 33 34 34 34 35 35 36 36 36 36
28 27 27 27 27 27 27 27 27 26 27 27 27 27 26 25 25 25 26 26 25 26 25 26 27 28 28 28 29 29 30 30 32 34 35 35 34 34 35 36 37 36 37
27 27 27 27 28 28 28 28 28 28 28 27 27 27 27 27 26 26 25 25 26 26 25 26 26 27 28 27 28 29 30 31 33 34 34 35 35 35 35 36 37 37 37
27 27 27 27 27 27 27 27 28 28 28 28 28 27 27 27 27 26 26 26 26 26 26 27 27 27 27 27 27 28 30 31 33 35 35 36 36 36 35 36 37 38 38
27 27 27 27 26 26 26 27 27 28 27 27 27 27 27 27 27 27 27 26 25 25 26 27 27 27 27 28 28 29 30 31 32 34 35 35 36 36 36 37 37 38 39
27 27 27 26 27 27 27 27 27 28 27 26 27 27 27 27 28 27 27 27 26 26 26 26 27 27 27 27 28 29 30 30 31 32 33 35 35 36 36 37 37 38 39
25 26 26 26 26 26 27 27 26 26 26 26 27 27 27 27 26 26 26 26 26 26 26 27 27 28 28 28 28 29 30 30 32 32 34 35 35 36 36 37 37 38 38
23 24 25 25 25 25 25 25 25 26 26 25 25 26 26 26 26 25 25 26 26 26 26 27 27 28 29 29 29 29 30 30 30 31 33 34 35 36 36 37 37 37 38
23 24 24 24 24 24 24 24 25 25 24 24 24 25 25 25 25 24 25 25 25 26 26 26 27 28 28 28 29 29 30 30 30 31 32 33 34 34 35 36 37 36 37
23 23 23 22 22 23 24 24 24 24 24 24 24 24 24 25 25 25 25 26 26 26 27 27 26 26 27 28 28 29 29 30 30 30 31 31 32 33 34 35 36 36 36
21 21 21 21 22 23 23 23 23 23 23 23 24 24 24 24 24 25 26 26 26 26 26 26 26 26 26 26 26 27 27 28 28 29 30 30 31 32 33 33 34 35 35
21 21 21 21 21 21 21 22 22 22 23 23 24 24 24 24 24 26 26 26 26 26 26 26 26 26 26 26 26 26 26 27 28 28 28 29 30 31 31 32 32 33 33
20 20 20 20 20 21 21 22 22 22 21 22 23 24 24 24 24 25 25 25 25 26 26 26 25 26 26 27 27 27 26 26 27 27 27 28 29 29 30 31 32 33 33
19 20 19 20 20 21 21 21 21 21 21 22 23 23 23 24 25 25 25 25 25 25 25 25 25 26 26 26 26 26 26 26 27 27 28 28 29 30 31 31 30 31 32
18 18 19 20 20 21 21 20 20 21 21 22 23 24 25 26 26 25 25 25 25 25 25 25 26 25 25 25 26 26 26 26 26 27 28 28 28 29 30 31 30 30 30
17 18 18 19 20 20 19 20 21 22 23 23 24 25 26 27 26 27 26 26 26 26 27 27 27 26 26 26 26 25 25 25 26 26 27 28 29 29 29 29 30 30 31
17 18 18 19 20 20 20 21 22 23 24 24 25 26 26 26 26 27 26 26 26 27 28 28 28 27 27 26 26 26 25 24 24 25 26 26 28 28 29 29 29 30 31
17 18 18 19 20 20 21 22 23 24 25 26 27 27 27 27 27 27 26 26 27 27 28 27 27 26 26 25 25 25 25 25 25 25 26 27 27 28 28 28 29 30 30

GEFSMA_500_meanwind_204.txt.gz
Wind_Speed
22 23 23 23 23 24 24 24 25 24 24 24 23 23 23 24 24 24 24 24 25 25 25 25 25 26 26 26 26 26 26 26 27 26 26 26 26 26 26 26 25 25 25
23 23 23 24 25 25 25 25 25 25 25 25 25 25 25 25 25 25 25 25 25 25 25 25 25 26 26 26 26 27 27 27 28 28 28 28 28 27 27 28 27 27 27
24 24 24 25 26 26 26 26 26 25 26 26 26 26 26 26 26 26 26 26 26 25 25 24 24 25 26 26 27 27 28 28 29 29 29 30 30 30 29 29 29 29 29
27 26 25 26 27 26 26 25 25 25 25 25 26 27 27 27 27 26 26 26 26 26 25 25 25 26 26 27 27 27 27 28 29 30 30 31 31 31 31 30 30 30 30
27 27 27 27 28 27 26 26 25 26 26 27 27 28 28 28 28 27 26 26 26 27 26 26 27 27 27 27 28 28 28 29 29 30 31 32 32 33 32 31 31 31 31
28 28 28 28 28 27 27 28 28 28 28 28 28 28 28 28 27 27 27 27 26 27 27 27 28 28 27 27 28 28 29 30 30 30 31 32 33 34 34 32 32 32 33
29 29 29 29 29 29 30 30 30 30 29 28 28 28 29 29 28 28 28 27 27 28 28 28 29 29 29 28 28 29 29 30 31 31 32 33 33 35 35 35 34 34 34
30 30 30 30 30 31 31 30 30 31 30 30 29 29 29 29 30 29 29 29 28 29 29 29 29 30 30 30 30 30 31 32 32 32 33 34 34 35 36 36 36 36 36
30 30 30 30 30 30 30 30 30 31 30 30 30 29 29 29 30 30 30 30 30 30 30 30 31 31 31 31 31 31 32 32 32 32 32 34 34 34 36 37 37 37 37
30 29 29 30 30 30 30 29 29 29 30 30 30 30 29 29 30 30 30 32 32 32 32 32 32 31 31 32 32 32 31 31 32 32 32 33 34 35 35 36 36 37 37
29 28 29 29 29 29 28 28 28 29 29 30 30 29 29 29 30 30 30 31 32 32 33 32 32 32 32 32 32 31 31 32 33 33 33 33 34 35 36 36 36 36 38
28 28 28 28 28 28 28 28 28 29 29 29 29 29 29 30 30 30 30 29 30 31 32 32 32 32 32 32 32 32 32 33 33 34 35 35 35 35 36 36 36 37 38
28 28 28 28 28 28 27 27 28 28 28 29 29 29 29 30 31 31 31 30 29 30 31 32 32 32 32 32 33 33 33 33 33 34 35 35 35 36 37 37 37 37 36
27 27 27 27 27 26 26 26 26 27 28 29 29 30 30 30 30 30 30 30 30 30 30 31 32 32 33 32 33 33 33 33 34 34 34 34 34 35 36 37 38 38 37
26 25 25 26 26 26 25 26 26 27 28 29 29 30 30 30 29 29 30 30 30 30 30 31 31 31 32 32 32 33 33 33 33 33 34 34 35 36 37 38 38 38 38
24 24 24 25 25 25 25 25 26 27 27 28 29 29 30 30 30 29 30 31 30 31 30 31 32 32 32 31 31 32 33 33 32 33 33 34 35 36 38 38 39 39 40
23 23 23 23 23 23 24 25 25 26 27 27 28 28 29 29 28 28 29 30 31 31 30 30 30 31 30 30 31 31 32 32 32 32 33 34 35 36 37 38 39 40 40
22 22 22 22 22 23 23 24 25 26 26 26 26 27 27 28 28 28 29 29 30 29 29 28 29 29 29 30 30 30 31 31 32 32 32 33 34 35 37 38 39 39 40
21 21 22 22 22 22 23 23 24 25 25 26 26 26 26 27 27 27 28 28 28 29 29 29 29 29 29 30 30 30 30 31 31 31 32 32 33 35 36 37 38 39 40
21 21 22 21 22 23 23 23 24 24 25 25 25 25 26 26 27 27 29 29 29 29 29 28 29 30 30 30 31 31 30 30 31 31 32 32 33 34 35 36 37 38 39
20 21 20 20 21 22 22 23 23 23 24 24 25 25 26 27 28 29 29 29 29 29 28 28 29 30 31 30 30 30 31 31 31 31 32 32 33 33 34 35 37 38 38
19 19 20 20 21 22 22 22 22 23 24 25 25 26 27 28 29 29 29 29 29 29 29 29 30 31 31 32 32 32 32 32 32 32 32 32 32 32 33 35 35 36 37
19 19 20 20 21 22 22 23 24 26 26 26 26 27 28 29 29 29 29 29 29 29 29 29 29 30 31 31 31 32 32 32 31 32 31 31 31 31 33 33 34 34 36
18 19 20 20 21 22 23 24 25 27 27 28 27 28 29 29 30 29 29 28 29 29 30 29 29 29 28 28 29 30 30 30 31 31 30 29 30 31 31 33 33 34 35
18 19 19 20 21 22 24 25 26 28 28 28 28 29 29 29 29 29 28 28 28 28 29 29 28 28 27 27 27 27 28 28 28 29 29 28 28 29 30 31 32 33 34
18 18 20 21 22 23 24 25 27 28 28 28 28 29 29 29 28 28 27 27 27 27 27 26 26 25 25 26 27 26 26 26 26 26 27 27 27 27 28 30 31 32 32

GEFSMA_500_meanwind_210.txt.gz
Wind_Speed
22 23 23 23 23 23 23 23 23 23 23 23 23 23 22 23 23 23 23 23 24 24 24 24 24 24 24 24 25 26 26 26 27 27 27 28 28 27 27 27 26 27 27
24 24 24 23 24 24 24 24 24 25 25 25 25 25 24 24 24 24 24 24 25 25 25 25 25 25 26 26 27 27 27 28 28 28 29 29 29 29 29 28 28 28 29
25 25 25 25 25 25 25 26 26 26 25 26 26 26 26 25 25 25 25 25 26 26 26 26 26 26 26 27 28 28 28 28 29 30 30 30 31 30 30 30 29 29 29
27 27 27 27 27 26 26 27 27 27 27 26 26 27 27 26 26 26 27 26 26 27 27 27 27 28 27 28 28 29 28 28 29 29 30 30 31 31 31 31 30 31 31
27 28 28 27 27 27 27 27 27 27 26 26 27 27 27 28 28 28 28 28 28 28 28 28 29 29 29 29 29 29 29 29 30 30 30 31 32 32 32 32 31 32 31
27 28 27 27 27 27 27 27 27 27 28 28 28 28 28 29 29 29 29 29 30 30 30 30 29 29 29 29 30 30 29 30 30 31 31 31 32 33 33 33 33 33 33
28 28 28 28 28 28 27 27 27 28 28 29 30 30 30 30 31 31 31 31 31 31 31 31 30 30 30 30 30 31 30 31 32 32 32 33 33 34 34 34 35 35 35
28 28 28 28 28 27 27 27 28 28 28 29 30 31 31 31 31 32 32 32 32 32 31 31 31 31 31 31 31 31 31 32 32 33 33 33 34 35 35 35 36 36 36
27 27 26 26 26 26 26 27 28 29 30 30 31 32 32 31 32 32 32 32 33 32 32 32 32 32 32 32 32 33 33 33 33 34 34 34 35 35 36 36 36 36 36
26 26 26 26 26 26 27 27 29 30 30 30 30 30 31 31 31 31 31 32 32 33 33 33 33 33 33 33 34 33 34 35 35 35 36 35 35 35 36 36 36 36 37
25 26 26 27 27 27 28 29 29 29 29 29 29 30 30 31 31 31 30 31 32 33 34 33 33 33 34 34 35 34 34 35 36 36 37 36 36 36 36 36 37 37 37
26 26 26 27 27 27 28 28 28 28 28 29 29 30 31 31 32 32 32 31 32 33 34 34 34 34 34 34 35 35 35 35 35 37 37 37 37 37 37 37 37 37 37
25 25 25 26 27 27 28 27 27 27 28 29 29 31 31 31 32 33 33 32 32 32 33 34 34 33 33 34 34 35 35 36 36 37 37 39 39 39 39 38 38 38 38
24 24 26 26 26 26 26 25 26 27 28 28 29 30 31 31 32 32 32 31 31 31 31 32 33 33 33 33 34 35 36 36 36 37 38 38 38 39 39 39 39 39 39
23 24 24 25 25 25 24 25 25 26 26 27 28 29 30 30 30 30 30 30 31 30 30 31 32 33 34 35 34 35 36 36 37 37 38 38 38 39 39 40 40 41 41
22 23 23 24 23 24 24 25 25 25 25 25 26 27 27 28 29 29 30 30 30 31 30 30 31 32 33 34 35 36 36 37 38 38 39 39 40 40 40 40 40 41 41
22 22 23 23 23 23 24 24 24 24 25 25 26 27 27 27 28 28 29 30 30 31 31 30 30 31 33 33 34 34 35 37 36 36 37 38 38 39 40 40 40 41 41
22 22 22 22 22 23 23 24 23 24 25 26 26 27 27 27 27 28 29 29 30 31 31 31 31 31 32 32 33 33 34 34 35 35 35 36 38 39 40 41 41 41 42
21 21 21 22 21 22 22 22 23 24 25 25 25 26 27 28 27 28 28 29 30 30 31 31 30 31 31 32 32 33 33 33 35 35 35 36 37 38 40 41 41 42 42
21 20 21 21 21 21 21 22 23 24 24 24 26 27 27 28 28 28 29 29 30 30 30 31 31 31 31 31 32 32 33 33 34 35 36 36 37 38 40 41 42 42 43
20 20 21 21 21 21 21 23 24 24 24 25 26 27 28 28 29 29 29 30 30 30 31 31 31 31 32 32 33 33 33 33 33 35 36 36 37 37 38 39 41 42 42
20 20 20 21 21 21 22 23 23 24 25 25 26 27 28 28 28 28 29 30 30 29 29 30 31 32 33 34 34 33 32 33 33 34 35 35 36 36 37 38 39 40 41
19 20 21 21 21 21 22 23 24 25 25 25 26 27 28 28 28 28 28 29 29 29 29 30 31 32 32 32 33 32 32 33 33 33 33 33 34 34 35 36 37 38 39
19 19 20 21 22 22 23 24 25 25 25 26 26 26 27 27 27 27 27 27 27 27 28 28 29 29 30 30 30 30 31 32 31 31 32 32 33 33 33 34 36 37 38
18 19 20 21 22 23 23 24 25 25 25 25 25 25 26 27 26 26 26 25 26 26 26 26 26 26 26 26 27 27 27 28 29 29 30 30 31 32 33 33 34 35 36
18 20 21 22 23 24 24 24 24 24 25 25 25 25 25 25 25 25 24 24 24 23 23 24 24 23 23 23 23 24 24 24 26 27 28 29 31 32 32 32 33 33 35

GEFSMA_500_meanwind_216.txt.gz
Wind_Speed
23 24 24 23 23 23 23 23 23 23 23 22 22 22 22 22 22 23 23 22 23 22 22 23 23 23 24 24 24 24 24 24 25 25 26 27 27 27 28 29 29 28 27
25 25 25 24 25 25 24 24 24 24 24 23 23 23 22 23 23 23 24 24 24 24 23 24 24 24 25 25 25 25 25 25 26 26 26 27 28 28 29 29 30 30 29
25 25 26 26 25 25 25 25 25 25 25 25 24 24 24 24 25 25 25 25 25 25 25 26 26 26 26 26 26 27 27 27 27 28 28 28 28 30 30 30 31 31 31
25 26 25 26 26 26 26 26 26 25 26 25 25 25 25 26 26 27 27 25 25 25 26 27 27 27 27 27 28 28 29 29 29 29 30 30 29 30 31 31 31 32 32
25 25 25 25 26 26 26 27 27 27 26 26 25 25 26 27 27 27 27 27 27 27 27 28 28 29 29 28 28 29 29 30 31 31 31 31 31 31 32 32 32 33 32
25 25 25 25 25 26 26 26 26 27 26 26 25 25 26 27 28 28 28 28 28 28 28 28 29 30 31 30 30 30 30 29 30 31 32 32 33 33 33 34 34 34 34
25 25 25 25 25 26 26 26 26 26 26 26 26 26 26 27 28 28 28 28 28 29 30 29 29 30 31 32 32 32 31 31 30 31 31 31 32 33 34 35 36 35 35
23 24 25 25 25 25 25 26 26 26 26 26 27 27 26 26 26 27 28 28 29 30 30 30 30 30 31 32 32 33 33 33 32 33 33 33 33 33 34 35 36 36 35
23 24 24 24 24 25 25 26 25 25 26 26 27 28 28 27 26 27 28 28 29 29 30 30 31 31 32 33 33 33 34 34 34 34 34 34 34 34 35 35 36 36 36
24 24 24 25 25 25 25 24 25 26 27 27 28 28 28 28 28 27 27 29 30 30 30 31 31 32 32 32 33 34 34 34 35 35 36 36 36 36 36 36 37 37 37
24 24 25 25 25 24 24 25 26 27 28 28 28 28 28 29 28 28 28 29 31 31 31 31 31 32 32 32 33 34 35 35 36 36 36 37 37 37 37 37 37 38 38
24 25 25 25 24 24 25 25 26 28 28 28 28 28 29 29 29 30 30 31 31 32 32 31 32 32 33 33 33 34 34 35 36 36 36 36 36 37 38 38 38 38 38
24 25 24 24 24 25 26 26 27 28 28 28 28 29 30 30 31 31 30 30 31 32 32 32 32 33 33 33 33 34 35 35 36 36 36 37 37 37 38 38 39 39 38
24 23 23 24 24 25 26 27 28 28 28 28 29 30 30 31 31 31 31 31 31 31 31 31 31 32 32 33 33 34 35 35 35 36 36 37 37 38 38 39 40 40 40
23 23 23 24 24 25 26 27 28 28 28 29 30 31 31 31 32 32 32 32 33 32 31 31 32 32 32 32 32 33 34 35 35 36 36 37 38 38 39 39 40 41 41
22 23 23 24 24 25 26 27 28 28 29 30 31 31 31 31 31 32 32 32 33 34 33 32 33 33 33 33 33 33 33 34 35 35 36 37 37 39 40 40 40 41 42
21 22 23 24 24 24 26 27 28 28 29 30 29 30 30 31 32 32 32 32 32 33 33 33 33 33 33 33 33 33 34 34 34 35 35 35 36 37 38 39 40 41 42
21 21 22 23 24 25 27 27 28 28 29 28 29 29 30 31 31 31 32 32 32 32 33 33 32 33 33 34 34 34 34 34 34 34 35 35 36 37 39 38 39 40 41
21 21 22 24 25 26 26 27 27 28 28 28 29 29 30 30 30 30 30 30 31 32 32 32 32 33 33 33 33 34 34 34 34 34 35 34 35 36 36 38 39 40 41
21 21 22 23 24 25 26 26 26 27 28 28 29 30 30 29 28 29 29 30 31 32 32 33 33 32 32 32 32 32 33 34 35 35 35 35 36 36 36 37 39 40 40
21 22 22 23 24 25 25 26 27 28 28 29 29 29 29 29 29 29 29 29 30 30 30 30 31 30 30 31 31 31 32 33 34 34 34 35 36 36 37 37 38 39 40
21 21 21 23 24 25 26 26 27 28 28 29 29 29 29 29 29 29 30 30 29 29 29 30 30 28 28 29 30 30 31 31 31 32 32 33 34 35 35 36 37 38 39
21 22 22 24 25 26 26 27 27 28 29 29 28 28 28 28 28 29 29 29 29 28 28 29 28 27 27 28 28 29 29 29 30 30 31 31 32 32 34 35 35 36 38
21 22 22 24 25 26 26 27 28 28 29 28 28 28 28 28 27 27 28 28 28 27 27 27 27 27 27 27 27 27 27 28 29 30 31 31 32 33 33 34 34 35 36
21 22 23 24 25 26 26 27 28 28 28 29 29 28 27 26 26 26 26 27 26 25 26 26 27 26 25 26 26 25 25 26 26 27 28 29 29 30 31 32 33 34 35
21 22 22 23 25 26 26 27 28 28 28 28 28 27 26 26 26 26 26 25 24 24 24 24 25 24 24 24 24 24 24 24 24 25 26 27 28 29 29 30 32 34 34

GEFSMA_500_meanwind_222.txt.gz
Wind_Speed
20 21 21 21 21 21 22 23 23 22 22 21 22 22 22 22 22 22 22 22 22 22 23 23 24 24 24 24 24 25 25 25 25 25 26 26 26 26 26 26 27 27 27
21 21 21 22 22 22 23 24 23 23 23 23 23 22 22 22 23 23 24 24 24 23 24 24 25 25 25 25 26 26 27 27 27 27 27 28 27 28 27 28 28 28 28
22 22 22 23 23 23 24 24 24 24 24 24 23 23 24 24 24 24 24 24 24 25 25 25 26 26 27 27 27 27 28 28 29 29 29 29 29 29 29 29 29 29 29
22 23 24 24 24 25 25 25 25 25 24 24 24 24 25 25 24 25 25 25 25 25 25 25 25 26 28 28 28 28 29 29 30 30 30 30 31 31 31 31 30 31 31
23 23 24 24 25 24 25 25 25 25 25 25 25 25 25 24 24 24 25 25 25 26 26 26 26 27 27 28 29 29 29 30 30 30 31 31 32 32 33 33 33 32 32
22 23 23 23 24 24 24 25 25 25 25 26 25 24 24 24 24 24 25 26 27 27 27 27 28 28 28 28 29 30 30 31 31 31 31 32 32 33 33 34 34 34 34
22 23 22 21 22 22 24 24 24 24 24 24 23 23 23 24 25 25 26 27 27 28 28 28 28 28 29 29 30 30 31 31 32 32 32 33 33 34 34 34 35 35 35
21 22 22 21 22 23 23 24 23 23 24 24 23 23 24 24 25 26 26 27 27 28 29 29 29 29 30 30 30 31 31 32 33 33 33 34 34 35 35 35 36 37 37
20 21 20 21 22 22 22 21 21 21 22 23 23 23 24 24 25 26 26 26 27 27 29 30 30 30 30 31 31 31 32 32 33 33 34 34 35 36 36 36 36 37 37
20 21 21 21 21 21 21 22 22 21 21 22 23 24 24 24 25 26 27 28 28 28 29 30 31 32 32 32 33 33 33 33 34 33 34 35 35 36 37 37 38 38 38
20 20 21 21 21 22 22 21 21 21 21 22 23 24 25 26 26 27 27 28 29 29 30 31 32 33 33 34 34 35 35 34 35 35 35 36 36 37 38 38 39 39 39
20 20 21 21 22 21 21 20 20 21 21 22 24 25 26 26 27 28 28 29 30 30 31 32 33 34 35 35 35 35 36 35 35 36 36 36 37 37 38 38 40 40 40
20 20 20 20 20 21 21 20 20 21 23 24 25 25 26 27 28 29 29 29 30 31 33 34 35 35 36 36 36 36 36 36 36 37 38 38 38 37 37 39 39 41 41
19 19 19 19 19 20 20 19 20 21 23 24 25 26 27 28 28 29 30 30 31 32 34 34 34 35 35 35 36 36 37 37 37 38 38 39 39 38 38 38 39 40 41
17 18 18 18 18 20 21 21 20 22 23 24 26 27 28 29 29 30 31 32 32 33 33 33 34 35 35 36 36 37 37 37 38 38 39 40 40 39 38 38 40 41 41
17 16 17 17 18 20 21 21 21 22 23 25 27 27 28 29 30 31 32 33 33 34 34 34 34 34 34 36 36 37 37 37 38 38 39 39 40 40 40 40 40 41 42
16 16 17 17 19 20 21 22 22 23 24 26 27 28 29 30 31 31 33 33 33 33 33 33 34 33 33 34 35 34 34 35 36 37 38 39 40 41 41 41 41 42 42
16 17 18 18 19 20 21 22 23 24 26 27 28 29 29 30 30 31 31 32 32 33 32 32 32 32 32 32 32 33 33 34 35 35 36 38 39 40 40 40 41 42 42
17 18 19 19 20 21 22 23 24 25 27 28 29 29 28 29 30 31 31 31 32 32 32 32 32 31 32 32 33 33 33 33 34 34 34 35 37 38 39 40 40 41 42
17 18 18 19 20 21 23 23 24 26 27 28 28 28 28 29 30 30 31 30 30 31 31 31 31 30 31 32 33 33 33 33 33 34 34 34 35 36 37 39 39 40 41
17 18 19 19 20 22 23 24 24 26 27 28 28 27 28 29 29 30 30 29 29 29 29 30 30 30 30 31 31 32 31 32 32 34 34 34 34 34 36 36 37 38 39
17 17 18 19 20 21 23 24 25 26 27 27 27 28 28 29 29 29 29 28 28 27 28 28 28 28 28 29 29 29 30 30 30 31 32 33 34 35 35 36 36 36 37
17 18 18 19 20 21 23 25 26 26 26 27 27 28 28 29 28 27 27 26 26 26 26 26 26 26 26 25 26 27 27 27 27 29 30 31 33 34 34 35 36 37 37
17 18 19 19 20 22 23 24 26 26 26 27 27 27 27 26 26 26 26 26 26 26 26 26 25 24 24 23 24 23 23 24 24 26 27 28 29 31 32 34 35 37 38
17 18 19 20 22 23 25 25 27 27 26 26 26 26 25 26 25 25 25 25 25 25 25 25 24 24 23 22 21 21 21 22 22 23 24 25 26 28 30 32 33 35 36
17 18 20 22 23 24 25 26 27 26 26 25 26 26 25 25 25 25 25 24 24 24 24 23 23 23 22 21 19 18 18 18 18 20 22 24 25 26 27 29 32 33 34

GEFSMA_500_meanwind_228.txt.gz
Wind_Speed
22 23 23 23 23 22 23 24 24 24 24 25 25 24 23 23 23 23 23 23 23 23 24 24 24 24 24 25 24 24 25 25 25 25 25 25 25 25 25 25 25 26 26
23 22 23 23 23 23 23 24 24 25 25 25 25 25 24 23 23 24 24 24 24 24 24 25 25 25 25 25 26 26 27 26 27 27 27 27 27 27 27 27 27 27 28
23 23 23 23 23 23 24 24 25 25 26 26 25 26 26 25 24 24 25 25 25 25 25 25 26 26 26 26 26 27 28 28 27 28 27 28 28 28 28 29 29 28 28
22 22 22 22 22 22 24 24 25 26 26 26 26 26 25 25 25 25 25 25 26 26 26 26 27 27 27 28 28 28 28 28 28 28 29 29 30 30 30 30 30 30 30
22 22 22 23 24 24 24 25 25 25 26 26 25 25 25 25 24 24 25 25 26 27 27 27 27 28 28 28 29 29 29 29 30 30 30 30 31 31 31 31 31 31 31
23 23 23 24 24 23 24 24 24 25 25 25 25 25 25 25 25 25 25 26 27 27 27 28 29 29 29 30 30 29 29 30 31 31 31 31 31 31 32 32 33 33 32
23 23 23 24 24 24 24 24 24 25 25 25 24 24 25 26 25 25 26 27 27 27 28 28 28 29 30 30 30 30 30 31 31 31 32 32 33 33 33 33 33 34 34
23 23 23 23 23 24 24 24 25 25 24 24 23 24 25 25 25 26 26 26 26 27 27 27 27 29 30 30 31 31 32 32 32 32 33 34 34 35 34 34 34 35 35
22 23 23 24 23 23 23 24 24 24 24 24 24 24 24 25 25 26 26 27 27 27 28 28 28 28 29 30 31 31 32 33 34 34 34 35 35 35 35 36 36 36 36
21 22 23 23 23 23 23 23 24 25 25 24 24 24 24 25 25 26 27 28 29 29 29 29 29 29 30 31 32 32 33 34 36 36 36 36 36 36 36 37 37 37 37
20 21 22 22 22 22 22 22 22 23 23 24 23 23 24 25 26 27 28 29 30 30 30 30 31 31 32 33 34 34 36 36 37 37 37 37 37 37 37 37 38 38 38
21 20 20 21 22 22 22 22 22 22 22 23 24 24 25 25 26 28 29 30 30 30 31 32 33 33 34 35 36 37 38 38 38 38 38 38 38 38 38 38 39 39 39
20 20 20 21 21 22 22 22 22 23 23 24 24 24 24 26 27 29 30 31 30 31 32 34 34 34 35 35 37 38 39 39 40 39 39 40 41 40 40 39 39 40 40
19 19 19 20 20 20 20 22 22 24 24 25 25 25 25 27 27 29 30 31 31 31 33 34 34 35 36 36 37 38 38 39 40 40 40 41 41 41 40 41 41 40 40
17 17 18 19 19 19 20 21 23 23 24 24 26 26 27 28 28 29 30 31 31 31 32 33 34 36 37 37 38 38 39 40 41 41 41 41 41 42 42 42 43 42 42
17 17 18 19 20 19 19 20 21 22 23 24 25 27 27 27 28 29 29 30 30 31 32 33 34 36 37 38 38 38 39 40 40 41 40 41 42 43 43 43 43 43 44
17 17 17 18 19 19 20 20 21 22 23 24 25 26 27 27 28 28 29 30 31 32 32 33 34 35 36 37 37 38 38 38 39 39 39 40 41 42 43 44 45 44 45
17 17 17 18 19 19 20 21 22 23 24 24 25 26 27 27 28 28 29 30 31 32 33 33 33 34 34 35 35 35 35 35 36 37 38 39 40 41 42 43 44 45 45
17 17 17 18 18 20 21 21 22 23 24 24 25 25 26 28 28 28 29 30 31 33 33 33 33 34 34 34 34 34 34 34 34 35 36 37 38 40 41 42 43 44 44
17 18 18 18 19 20 21 21 22 23 24 25 25 26 27 27 28 28 29 31 32 33 33 33 32 33 33 33 33 33 32 33 33 34 35 36 38 39 40 41 41 43 43
18 18 18 18 19 20 21 21 22 24 25 26 26 27 27 28 28 30 31 31 32 32 32 32 32 31 31 31 32 32 33 32 32 33 34 35 36 37 38 39 41 42 42
17 17 17 17 18 19 20 22 23 25 26 26 26 27 27 28 29 30 30 30 31 31 32 32 31 31 30 29 28 29 30 30 30 31 31 32 33 34 36 36 38 39 41
16 16 16 17 18 19 21 23 25 26 26 26 27 27 28 28 29 29 29 29 30 30 30 30 30 29 28 27 26 26 25 25 26 27 28 29 30 32 33 34 35 36 37
16 16 16 18 19 20 22 23 25 26 26 26 26 27 27 27 28 28 28 28 28 27 28 28 28 27 26 25 25 23 22 22 21 22 23 23 26 28 30 32 33 34 35
16 16 17 18 20 21 23 25 26 26 26 27 27 26 26 26 27 27 26 25 25 25 26 26 26 26 25 24 23 22 21 20 20 21 21 21 22 24 26 28 30 32 34
16 16 18 20 21 23 24 26 27 27 27 27 26 26 26 26 26 26 24 24 23 24 25 25 25 25 25 24 23 22 21 21 21 20 20 20 21 22 23 25 27 30 31